Flag for Austria Past Weather in Feldkirchen in Kärnten, Carinthia, Austria — Yesterday and Last 2 Weeks

Now
52 °F

Overcast.


Feels Like: N/A
Forecast: 41 / 52 °F
Wind: N/A

Location: Klagenfurt-Flughafen

Current Time: Apr 26, 2017 at 2:33:17 am

Latest Report: Apr 26, 2017 at 1:00 am


Visibility: 25 mi

Pressure: 29.78 "Hg (27.91 "Hg at 541m altitude)

Humidity: 74%

Dew Point: 44 °F

Location of Feldkirchen in KärntenLocation

Past Weather in Feldkirchen in Kärnten — Graph

°F

Feldkirchen in Kärnten Temperature Yesterday

Maximum temperature yesterday: 63 °F (at 4:00 pm)
Minimum temperature yesterday: 40 °F (at 6:00 am)
Average temperature yesterday: 53 °F

High & Low Weather Summary for the Past Weeks

 TemperatureHumidityPressure
High68 °F (Apr 14, 3:00 pm)99% (Apr 16, 3:00 am)30.51 "Hg (Apr 16, 3:00 am)
Low26 °F (Apr 21, 5:00 am)20% (Apr 21, 4:00 pm)29.78 "Hg (Apr 26, 1:00 am)
Average49 °F61%30.06 "Hg
* Reported Apr 11 1:00 am — Apr 26 1:00 am, Feldkirchen in Kärnten, Weather by CustomWeather, © 2017

Note: Actual official high and low records may vary slightly from our data, if they occured in-between our weather recording intervals... More about our weather records

Advertising

Feldkirchen in Kärnten Weather History for the Previous 24 Hours

Scroll right to see more
 ConditionsComfort  
Time TempWeatherWind HumidityBarometerVisibility
1:00 am
Wed, Apr 26
52 °FOvercast.N/A74%29.78 "Hg25 mi
12:00 am54 °FLight rain. Overcast.N/A69%29.79 "Hg25 mi
11:00 pm
Tue, Apr 25
54 °FOvercast.N/A67%29.80 "Hg31 mi
10:00 pm53 °FPassing clouds.N/A66%29.82 "Hg31 mi
9:00 pm55 °FPassing clouds.N/A61%29.80 "Hg28 mi
8:00 pm56 °FOvercast.3 mph59%29.81 "Hg28 mi
7:00 pm57 °FOvercast.N/A55%29.81 "Hg28 mi
6:00 pm60 °FPartly sunny.5 mph48%29.80 "Hg19 mi
5:00 pm60 °FOvercast.7 mph48%29.83 "Hg19 mi
4:00 pm63 °FOvercast.5 mph43%29.81 "Hg22 mi
3:00 pm61 °FOvercast.6 mph48%29.83 "Hg22 mi
2:00 pm62 °FOvercast.3 mph48%29.83 "Hg15 mi
1:00 pm61 °FPartly sunny.6 mph46%29.84 "Hg22 mi
12:00 pm62 °FPartly sunny.5 mph46%29.84 "Hg25 mi
11:00 am63 °FScattered clouds.N/A47%29.84 "Hg19 mi
10:00 am59 °FPassing clouds.N/A57%29.87 "Hg16 mi
9:00 am53 °FPassing clouds.N/A66%29.91 "Hg14 mi
8:00 am45 °FPassing clouds.N/A78%29.93 "Hg14 mi
7:00 am40 °FQuite cool.N/A84%29.96 "Hg14 mi
6:00 am40 °FQuite cool.N/A86%29.96 "Hg14 mi
5:00 am41 °FQuite cool.N/A86%29.96 "Hg16 mi
4:00 am43 °FQuite cool.N/A83%29.96 "Hg17 mi
3:00 am43 °FQuite cool.N/A83%29.98 "Hg28 mi
2:00 am45 °FCool.N/A80%29.98 "Hg25 mi
Weather by CustomWeather, © 2017

See weather overviewHow to use our weather pages